Index of /wp-hr-content/uploads/2024/03/

NameLast ModifiedSize
UpParent Directory
FileBBMR-1st-Qtr-FY24.xlsx2024-03-20 06:55 139k
FileBureau-of-Statistics-Plans-1st-Qtr-FY24.xlsx2024-03-20 06:55 1125k
FileCHamoru-Land-Trust-Commission-1st-Qtr-FY24-1.xlsx2024-03-20 06:55 103k
FileCHamoru-Land-Trust-Commission-1st-Qtr-FY24.xlsx2024-03-20 06:55 135k
FileChamoru-Land-Trust-Commission-2nd-Qtr-FY24.xlsx2024-03-20 06:55 103k
FileCHamoru-Language-Kumision-1st-FY24-STAFFING-PATTERN-GF-ARPA-ANA-PM.xlsx2024-03-20 06:55 37k
FileCHIEF-INTERNAL-AUDITOR.pdf2024-03-07 04:25 329k
FileChief-Medical-Examiner-1st-Qtr-FY24.xlsx2024-03-20 06:55 14k
FileCivil-Service-Commision-1st-Qtr-FY24.xlsx2024-03-20 06:56 171k
FileCivil-Service-Commission-2nd-Qtr-FY24.xlsx2024-03-20 06:56 208k
FileCLERK-II-OPEN-DOA101-24.pdf2024-03-08 06:10 169k
FileCLERK-III-OPEN-DOA102-24.pdf2024-03-08 06:09 250k
FileContractors-License-Board-1st-Qtr-Fy24.xlsx2024-03-20 06:56 14k
FileCorrection-Officer-1-and-Police-Officer-Trainee-Amendment.pdf2024-03-06 00:54 85k
FileCorrection-Officer-I-Job-Announcement-DOA42-19-Continuous.pdf2024-03-06 00:50 267k
FileCORRECTION-SOCIAL-WORKER-I-OPEN-DOA104-24.pdf2024-03-08 06:10 238k
FileCORRECTION-SOCIAL-WORKER-II-OPEN-DOA105-24.pdf2024-03-08 06:10 170k
FileCouncil-Arts-Humanities-Agency-1st-Qtr-FY24.xlsx2024-03-20 06:56 12k
FileCUSTOMER-SERVICE-SUPERVISOR-OPEN-DOA103-24.pdf2024-03-08 06:10 157k
FileDATA-CONTROL-CLERK-I-OPEN-DOA106-24.pdf2024-03-08 06:10 168k
FileDept-of-Administration-1st-Qtr-FY24.xlsx2024-03-20 06:56 437k
FileDept-of-Administration2-1st-Qtr-FY24.xlsx2024-03-20 06:56 30k
FileDept-of-Agriculture-1st-Qtr-FY24.xlsx2024-03-20 06:56 1703k
FileDept-of-Corrections-1st-Qtr-FY24.xlsx2024-03-20 06:56 325k
FileDept-of-Land-Management-FY-2024-1st-Qtr-FY24.xlsx2024-03-20 06:56 275k
FileDept-of-Military-Affairs-1st-Qtr-FY24.xlsx2024-03-20 06:56 22k
FileDept-of-Military-Affairs-2nd-Qtr-FY24.xlsx2024-03-20 06:56 25k
FileDept-of-Parks-Recreation-1st-Qtr-FY24.xlsx2024-03-20 06:56 401k
FileDept-of-Public-Works-1st-Qtr-FY24.xlsx2024-03-20 06:56 164k
FileDept-of-Public-Works_PEALS-Board-1st-Qtr-FY24.xlsx2024-03-20 06:56 67k
FileDept-of-Revenue-Taxation-1st-Qtr-FY24.xlsx2024-03-20 06:56 1723k
FileDept-of-Youth-Affairs-1st-quarter-FY24.xlsx2024-03-20 06:56 38k
FileDISID-ARP-1st-Qtr-FY24.xlsx2024-03-20 06:56 44k
FileDISID-DVR-FED-1st-Qtr-FY24.xlsx2024-03-20 06:56 78k
FileDISID-GENERAL-FUND-1st-Qtr-FY24.xlsx2024-03-20 06:56 530k
FileDISID-HFF-1st-Qtr-FY24.xlsx2024-03-20 06:56 530k
FileDPHSS-DCW-1st-Qtr-FY24.xlsx2024-03-20 06:56 146k
FileDPHSS-DCW2-1st-Qtr-FY24.xlsx2024-03-20 06:56 423k
FileDPHSS-DEH-1st-Qtr-FY24.xlsx2024-03-20 06:56 62k
FileDPHSS-DGA-1st-Qtr-FY24.xlsx2024-03-20 06:56 522k
FileDPHSS-DPH-1st-Qtr-FY24.xlsx2024-03-20 06:56 1018k
FileDPHSS-DPW-1st-Qtr-FY24.xlsx2024-03-20 06:56 270k
FileDPHSS-DSC-1st-Qtr-FY24.xlsx2024-03-20 06:56 300k
FileDPHSS-DSC2-1st-Qtr-FY24.xls2024-03-20 06:57 221k
FileENVIRONMENTAL-PUBLIC-HEALTH-OFFICER-I-KPPIII.pdf2024-03-07 03:54 212k
FileGBHWC-1st-Qtr-FY24.xlsx2024-03-20 06:57 1065k
FileGEC-FY-2024-1st-Qtr-Staffing-Pattern-20240315.xlsx2024-03-20 06:57 127k
FileGEthC-FY24-First-Quarter-Staffing-Pattern.xlsx2024-03-20 06:57 11k
FileGovernors-Office-1st-Qtr-FY24.xlsx2024-03-20 06:57 243k
FileGovernors-Office-2-1st-Qtr-FY24.xlsx2024-03-20 06:57 162k
FileGuam-Ancestral-Lands-Commission-1st-Qtr-FY24.xlsx2024-03-20 06:57 39k
FileGuam-Customs-Quarantine-Agency-1st-Qtr-FY24.xlsx2024-03-20 06:57 374k
FileGuam-Dept-of-Labor-1st-Qtr-FY24.xlsx2024-03-20 06:57 103k
FileGuam-Energy-Office-1st-Qtr-FY24.xlsx2024-03-20 06:57 98k
FileGuam-Environmental-Protection-Agency-1st-Qtr-FY24.xls2024-03-20 06:57 120k
FileGuam-Fire-Department-1st-Qtr-FY24.xlsx2024-03-20 06:57 164k
FileGuam-Public-Library-System-1st-Qtr-FY24.xlsx2024-03-20 06:57 51k
FileGuam-Regional-Transit-Agency-1st-Qtr-FY24.xlsx2024-03-20 06:57 39k
FileHagatna-Restoration-Redevelopment-Authority-1st-Qtr-FY24.xlsx2024-03-20 06:57 53k
FileJob-Announcement-Police-Officer-Trainee-DOA43-19.pdf2024-03-06 00:50 228k
FileMEDICAL-STAFF-RECRUITER-OPEN-DOA114-24.pdf2024-03-14 11:18 257k
FileOffice-of-Homeland-Security-OCD-GRO-1st-Qtr-FY24.xlsx2024-03-20 06:57 16k
FileOffice-of-Homeland-Security-OCD-GRO-2nd-Qtr-FY24.xlsx2024-03-20 06:57 17k
FileOffice-of-Technology-1st-Qtr-FY2024.xlsx2024-03-20 06:57 39k
FilePAROLE-OFFICER-I-OPEN-DOA107-24.pdf2024-03-08 06:10 181k
FilePROCUREMENT-COUNSEL-GSA.pdf2024-03-06 23:08 100k
FilePROGRAM-COORDINATOR-I-OPEN-DOA108-24.pdf2024-03-08 06:10 161k
FilePROGRAM-COORDINATOR-II-OPEN-DOA112-24.pdf2024-03-08 06:10 246k
FilePROGRAM-COORDINATOR-III-DPHSS-DOA109-24.pdf2024-03-08 06:10 177k
FilePROGRAM-COORDINATOR-III-OPEN-DOA110-24.pdf2024-03-08 06:10 251k
FilePROPERTY-SITE-MANAGER-DOA.pdf2024-03-07 00:44 853k
FileSOCIAL-SERVICE-LICENSING-OFFICER-OPEN-DOA111-24.pdf2024-03-08 06:10 165k
Proudly Served by LiteSpeed Web Server at hr.doa.guam.gov Port 443